軌道要素
Epoch 2018 June 11.0 TT = JDT 2458280.5
T 2018 June 17.71739 TT Rudenko
q 5.4384715 (2000.0) P Q
n 0.04463631 Peri. 122.19968 +0.95422302 +0.28566870
a 7.8706481 Node 221.39142 -0.29903490 +0.90521086
e 0.3090186 Incl. 7.70165 -0.00604539 +0.31462149
P 22.1
From 46 observations 2017 June 25-2018 Sept. 14, mean residual 0".4.
|